H1 CPF 2 NER 2022 12 20 9 354 01 glonass139 H2 1808601 9139 43687 2022 12 20 0 0 0 2022 12 23 23 45 0 900 1 1 0 0 0 1 H9 10 0 59933 0.00000 0 22082333.935 -9078996.375 -8966274.873 10 0 59933 900.00000 0 20958445.685 -8445666.226 -11822705.030 10 0 59933 1800.00000 0 19619094.550 -7522394.396 -14449311.740 10 0 59933 2700.00000 0 18123333.258 -6298717.930 -16794997.760 10 0 59933 3600.00000 0 16533153.741 -4776693.046 -18814120.437 10 0 59933 4500.00000 0 14910888.234 -2971080.115 -20467383.783 10 0 59933 5400.00000 0 13316615.270 -908993.972 -21722606.570 10 0 59933 6300.00000 0 11805679.656 1370967.355 -22555351.420 10 0 59933 7200.00000 0 10426430.625 3820080.323 -22949402.551 10 0 59933 8100.00000 0 9218273.017 6381284.440 -22897082.978 10 0 59933 9000.00000 0 8210112.936 8991328.041 -22399404.974 10 0 59933 9900.00000 0 7419262.792 11583182.495 -21466050.865 10 0 59933 10800.00000 0 6850851.055 14088624.789 -20115184.462 10 0 59933 11700.00000 0 6497760.798 16440881.264 -18373096.714 10 0 59933 12600.00000 0 6341098.812 18577222.475 -16273692.344 10 0 59933 13500.00000 0 6351174.540 20441401.156 -13857827.421 10 0 59933 14400.00000 0 6488946.603 21985831.698 -11172510.721 10 0 59933 15300.00000 0 6707874.800 23173420.268 -8269984.628 10 0 59933 16200.00000 0 6956098.295 23978969.373 -5206703.752 10 0 59933 17100.00000 0 7178846.862 24390098.650 -2042231.537 10 0 59933 18000.00000 0 7320982.183 24407643.955 1161922.977 10 0 59933 18900.00000 0 7329560.826 24045518.997 4343505.039 10 0 59933 19800.00000 0 7156309.615 23330046.393 7440726.779 10 0 59933 20700.00000 0 6759908.161 22298787.394 10393468.346 10 0 59933 21600.00000 0 6107981.536 20998920.517 13144443.999 10 0 59933 22500.00000 0 5178718.622 19485238.143 15640310.461 10 0 59933 23400.00000 0 3962047.593 17817845.833 17832696.199 10 0 59933 24300.00000 0 2460318.733 16059661.232 19679132.235 10 0 59933 25200.00000 0 688465.461 14273817.297 21143867.230 10 0 59933 26100.00000 0 -1326363.720 12521078.196 22198551.893 10 0 59933 27000.00000 0 -3545687.745 10857375.157 22822780.531 10 0 59933 27900.00000 0 -5921054.155 9331564.219 23004480.119 10 0 59933 28800.00000 0 -8395823.323 7983498.378 22740140.110 10 0 59933 29700.00000 0 -10907302.823 6842493.343 22034879.032 10 0 59933 30600.00000 0 -13389144.682 5926249.765 20902346.700 10 0 59933 31500.00000 0 -15773907.185 5240275.961 19364463.768 10 0 59933 32400.00000 0 -17995676.128 4777834.383 17451003.156 10 0 59933 33300.00000 0 -19992637.687 4520413.467 15199020.653 10 0 59933 34200.00000 0 -21709496.595 4438704.719 12652144.876 10 0 59933 35100.00000 0 -23099639.547 4494043.807 9859739.355 10 0 59933 36000.00000 0 -24126953.816 4640254.926 6875952.092 10 0 59933 36900.00000 0 -24767225.097 4825820.738 3758670.369 10 0 59933 37800.00000 0 -25009055.882 4996286.162 568400.602 10 0 59933 38700.00000 0 -24854265.551 5096794.261 -2632905.238 10 0 59933 39600.00000 0 -24317754.938 5074646.535 -5783053.706 10 0 59933 40500.00000 0 -23426840.678 4881778.638 -8820820.757 10 0 59933 41400.00000 0 -22220086.957 4477045.839 -11687145.483 10 0 59933 42300.00000 0 -20745683.523 3828220.451 -14326282.831 10 0 59933 43200.00000 0 -19059438.036 2913615.423 -16686892.388 10 0 59933 44100.00000 0 -17222467.072 1723264.098 -18723041.618 10 0 59933 45000.00000 0 -15298682.827 259604.839 -20395103.570 10 0 59933 45900.00000 0 -13352181.075 -1462359.888 -21670531.424 10 0 59933 46800.00000 0 -11444639.937 -3415438.244 -22524494.705 10 0 59933 47700.00000 0 -9632838.503 -5561143.216 -22940364.700 10 0 59933 48600.00000 0 -7966399.070 -7851070.196 -22910039.720 10 0 59933 49500.00000 0 -6485847.221 -10228701.438 -22434103.857 10 0 59933 50400.00000 0 -5221070.558 -12631562.842 -21521816.145 10 0 59933 51300.00000 0 -4190239.966 -14993643.684 -20190930.281 10 0 59933 52200.00000 0 -3399237.777 -17247978.792 -18467348.297 10 0 59933 53100.00000 0 -2841615.880 -19329285.534 -16384614.830 10 0 59933 54000.00000 0 -2499084.367 -21176545.653 -13983261.752 10 0 59933 54900.00000 0 -2342508.900 -22735424.105 -11310015.896 10 0 59933 55800.00000 0 -2333373.523 -23960423.693 -8416885.478 10 0 59933 56700.00000 0 -2425645.845 -24816685.434 -5360143.278 10 0 59933 57600.00000 0 -2567964.506 -25281359.430 -2199226.770 10 0 59933 58500.00000 0 -2706055.258 -25344489.130 1004422.732 10 0 59933 59400.00000 0 -2785272.304 -25009372.489 4188558.743 10 0 59933 60300.00000 0 -2753156.441 -24292385.599 7291342.163 10 0 59933 61200.00000 0 -2561900.988 -23222277.099 10252543.562 10 0 59933 62100.00000 0 -2170620.674 -21838963.868 13014711.542 10 0 59933 63000.00000 0 -1547327.182 -20191879.380 15524284.435 10 0 59933 63900.00000 0 -670527.715 -18337944.629 17732623.926 10 0 59933 64800.00000 0 469621.037 -16339247.013 19596951.101 10 0 59933 65700.00000 0 1870652.364 -14260524.310 21081167.555 10 0 59933 66600.00000 0 3517650.567 -12166558.636 22156546.521 10 0 59933 67500.00000 0 5383639.972 -10119588.467 22802281.661 10 0 59933 68400.00000 0 7430486.528 -8176845.705 23005883.805 10 0 59933 69300.00000 0 9610275.313 -6388319.268 22763418.714 10 0 59933 70200.00000 0 11867107.797 -4794837.052 22079581.742 10 0 59933 71100.00000 0 14139245.354 -3426544.824 20967608.133 10 0 59933 72000.00000 0 16361511.142 -2301844.250 19449020.490 10 0 59933 72900.00000 0 18467851.686 -1426833.229 17553217.833 10 0 59933 73800.00000 0 20393952.727 -795270.988 15316913.399 10 0 59933 74700.00000 0 22079801.147 -389068.765 12783431.240 10 0 59933 75600.00000 0 23472086.796 -179284.971 10001874.243 10 0 59933 76500.00000 0 24526344.186 -127582.715 7026178.817 10 0 59933 77400.00000 0 25208744.451 -188088.129 3914073.908 10 0 59933 78300.00000 0 25497462.250 -309570.918 725964.046 10 0 59933 79200.00000 0 25383559.826 -437854.789 -2476242.125 10 0 59933 80100.00000 0 24871350.461 -518355.480 -5630334.952 10 0 59933 81000.00000 0 23978225.419 -498638.443 -8675014.859 10 0 59933 81900.00000 0 22733951.003 -330887.163 -11551087.464 10 0 59933 82800.00000 0 21179464.717 25823.289 -14202618.842 10 0 59933 83700.00000 0 19365220.665 603544.771 -16578027.988 10 0 59933 84600.00000 0 17349153.352 1423851.724 -18631094.744 10 0 59933 85500.00000 0 15194345.137 2496683.034 -20321863.147 10 0 59934 0.00000 0 12966495.207 3819680.277 -21617422.340 10 0 59934 900.00000 0 10731294.733 5378052.423 -22492550.326 10 0 59934 1800.00000 0 8551821.000 7144972.195 -22930206.364 10 0 59934 2700.00000 0 6486055.280 9082491.183 -22921864.759 10 0 59934 3600.00000 0 4584630.828 11142934.729 -22467681.751 10 0 59934 4500.00000 0 2888903.556 13270719.815 -21576493.019 10 0 59934 5400.00000 0 1429425.517 15404520.506 -20265641.658 10 0 59934 6300.00000 0 224884.212 17479690.941 -18560639.858 10 0 59934 7200.00000 0 -718448.849 19430844.741 -16494670.808 10 0 59934 8100.00000 0 -1406738.461 21194483.077 -14107940.397 10 0 59934 9000.00000 0 -1858075.419 22711561.368 -11446891.321 10 0 59934 9900.00000 0 -2101458.482 23929886.935 -8563295.074 10 0 59934 10800.00000 0 -2175313.020 24806247.041 -5513239.751 10 0 59934 11700.00000 0 -2125610.356 25308178.002 -2356033.757 10 0 59934 12600.00000 0 -2003668.631 25415301.170 846952.573 10 0 59934 13500.00000 0 -1863729.534 25120169.965 4033484.334 10 0 59934 14400.00000 0 -1760414.499 24428592.808 7141674.493 10 0 59934 15300.00000 0 -1746168.922 23359418.938 10111187.218 10 0 59934 16200.00000 0 -1868803.176 21943796.788 12884408.453 10 0 59934 17100.00000 0 -2169234.838 20223936.605 15407560.914 10 0 59934 18000.00000 0 -2679527.733 18251429.779 17631742.014 10 0 59934 18900.00000 0 -3421310.642 16085195.491 19513865.135 10 0 59934 19800.00000 0 -4404642.451 13789140.581 21017486.746 10 0 59934 20700.00000 0 -5627371.567 11429630.087 22113504.218 10 0 59934 21600.00000 0 -7075016.883 9072873.271 22780711.839 10 0 59934 22500.00000 0 -8721175.843 6782333.076 23006205.191 10 0 59934 23400.00000 0 -10528443.273 4616265.677 22785626.802 10 0 59934 24300.00000 0 -12449803.665 2625491.127 22123248.853 10 0 59934 25200.00000 0 -14430439.981 851486.388 21031891.498 10 0 59934 26100.00000 0 -16409884.807 -675121.227 19532678.240 10 0 59934 27000.00000 0 -18324425.429 -1935598.764 17654632.606 10 0 59934 27900.00000 0 -20109663.723 -2923648.044 15434123.190 10 0 59934 28800.00000 0 -21703124.924 -3645420.082 12914166.925 10 0 59934 29700.00000 0 -23046807.008 -4119003.622 10143603.125 10 0 59934 30600.00000 0 -24089564.452 -4373409.796 7176153.396 10 0 59934 31500.00000 0 -24789226.508 -4447095.917 4069384.960 10 0 59934 32400.00000 0 -25114360.953 -4386090.931 883596.993 10 0 59934 33300.00000 0 -25045608.671 -4241801.892 -2319348.661 10 0 59934 34200.00000 0 -24576532.273 -4068594.519 -5477229.545 10 0 59934 35100.00000 0 -23713942.182 -3921250.612 -8528673.848 10 0 59934 36000.00000 0 -22477685.587 -3852410.568 -11414356.848 10 0 59934 36900.00000 0 -20899906.265 -3910110.005 -14078158.680 10 0 59934 37800.00000 0 -19023805.615 -4135515.677 -16468260.395 10 0 59934 38700.00000 0 -16901956.262 -4560957.501 -18538156.517 10 0 59934 39600.00000 0 -14594238.505 -5208340.988 -20247563.952 10 0 59934 40500.00000 0 -12165485.671 -6088008.322 -21563209.367 10 0 59934 41400.00000 0 -9682936.563 -7198097.366 -22459479.610 10 0 59934 42300.00000 0 -7213601.325 -8524426.753 -22918922.430 10 0 59934 43200.00000 0 -4821650.417 -10040913.101 -22932587.821 10 0 59934 44100.00000 0 -2565935.304 -11710503.893 -22500203.358 10 0 59934 45000.00000 0 -497743.968 -13486587.750 -21630180.093 10 0 59934 45900.00000 0 1341115.756 -15314823.735 -20339448.858 10 0 59934 46800.00000 0 2919825.757 -17135313.524 -18653130.030 10 0 59934 47700.00000 0 4219597.965 -18885025.700 -16604043.113 10 0 59934 48600.00000 0 5234203.080 -20500370.641 -14232065.579 10 0 59934 49500.00000 0 5969966.886 -21919818.001 -11583353.415 10 0 59934 50400.00000 0 6445235.771 -23086446.684 -8709438.728 10 0 59934 51300.00000 0 6689335.523 -23950320.060 -5666222.216 10 0 59934 52200.00000 0 6741068.942 -24470586.378 -2512880.509 10 0 59934 53100.00000 0 6646817.138 -24617215.941 689289.694 10 0 59934 54000.00000 0 6458326.303 -24372301.971 3878067.647 10 0 59934 54900.00000 0 6230274.768 -23730870.609 6991520.841 10 0 59934 55800.00000 0 6017724.323 -22701166.249 9969209.372 10 0 59934 56700.00000 0 5873564.401 -21304400.601 12753358.693 10 0 59934 57600.00000 0 5846057.709 -19573976.374 15289977.883 10 0 59934 58500.00000 0 5976591.254 -17554218.500 17529901.852 10 0 59934 59400.00000 0 6297727.735 -15298666.185 19429737.803 10 0 59934 60300.00000 0 6831639.435 -12867997.104 20952698.348 10 0 59934 61200.00000 0 7588990.416 -10327670.123 22069305.986 10 0 59934 62100.00000 0 8568314.052 -7745384.111 22757956.337 10 0 59934 63000.00000 0 9755912.254 -5188457.671 23005330.151 10 0 59934 63900.00000 0 11126280.998 -2721237.629 22806646.868 10 0 59934 64800.00000 0 12643045.075 -402642.574 22165755.377 10 0 59934 65700.00000 0 14260363.910 1716057.964 21095060.378 10 0 59934 66600.00000 0 15924750.729 3593137.777 19615285.668 10 0 59934 67500.00000 0 17577230.270 5197904.326 17755078.451 10 0 59934 68400.00000 0 19155745.974 6511724.341 15550461.587 10 0 59934 69300.00000 0 20597716.961 7528542.881 13044143.538 10 0 59934 70200.00000 0 21842638.562 8254875.053 10284698.422 10 0 59934 71100.00000 0 22834617.925 8709271.378 7325631.113 10 0 59934 72000.00000 0 23524738.412 8921279.703 4224344.886 10 0 59934 72900.00000 0 23873153.340 8929947.750 1041031.065 10 0 59934 73800.00000 0 23850820.491 8781929.718 -2162498.018 10 0 59934 74700.00000 0 23440803.626 8529277.202 -5324009.976 10 0 59934 75600.00000 0 22639085.278 8227008.206 -8382063.679 10 0 59934 76500.00000 0 21454855.473 7930557.566 -11277206.943 10 0 59934 77400.00000 0 19910263.161 7693217.276 -13953136.716 10 0 59934 78300.00000 0 18039639.695 7563675.769 -16357798.672 10 0 59934 79200.00000 0 15888226.018 7583761.075 -18444404.365 10 0 59934 80100.00000 0 13510456.113 7786484.154 -20172345.681 10 0 59934 81000.00000 0 10967867.957 8194466.034 -21507988.608 10 0 59934 81900.00000 0 8326728.756 8818816.079 -22425330.720 10 0 59934 82800.00000 0 5655473.296 9658509.653 -22906509.532 10 0 59934 83700.00000 0 3022061.885 10700292.288 -22942151.850 10 0 59934 84600.00000 0 491367.630 11919115.291 -22531557.366 10 0 59934 85500.00000 0 -1877298.387 13279085.164 -21682712.892 10 0 59935 0.00000 0 -4032421.321 14734887.475 -20412137.066 10 0 59935 900.00000 0 -5932184.761 16233626.606 -18744557.682 10 0 59935 1800.00000 0 -7545959.513 17717002.402 -16712429.639 10 0 59935 2700.00000 0 -8855321.662 19123734.962 -14355300.511 10 0 59935 3600.00000 0 -9854555.605 20392133.666 -11719037.682 10 0 59935 4500.00000 0 -10550623.550 21462702.931 -8854931.614 10 0 59935 5400.00000 0 -10962604.102 22280674.645 -5818693.068 10 0 59935 6300.00000 0 -11120625.211 22798360.341 -2669364.141 10 0 59935 7200.00000 0 -11064338.056 22977223.734 531835.021 10 0 59935 8100.00000 0 -10840997.860 22789586.130 3722700.828 10 0 59935 9000.00000 0 -10503234.140 22219892.750 6841258.326 10 0 59935 9900.00000 0 -10106605.833 21265486.704 9826966.540 10 0 59935 10800.00000 0 -9707045.590 19936858.150 12621893.357 10 0 59935 11700.00000 0 -9358301.902 18257358.316 15171837.039 10 0 59935 12600.00000 0 -9109487.389 16262390.526 17427372.664 10 0 59935 13500.00000 0 -9002836.782 13998112.144 19344803.765 10 0 59935 14400.00000 0 -9071768.961 11519701.506 20887001.391 10 0 59935 15300.00000 0 -9339334.367 8889261.850 22024115.239 10 0 59935 16200.00000 0 -9817112.794 6173448.909 22734144.053 10 0 59935 17100.00000 0 -10504607.712 3440919.890 23003355.227 10 0 59935 18000.00000 0 -11389162.520 759708.780 22826546.225 10 0 59935 18900.00000 0 -12446402.536 -1805364.415 22207143.324 10 0 59935 19800.00000 0 -13641184.729 -4195144.436 21157135.986 10 0 59935 20700.00000 0 -14929016.203 -6358351.180 19696848.000 10 0 59935 21600.00000 0 -16257882.945 -8253459.375 17854549.410 10 0 59935 22500.00000 0 -17570413.309 -9850170.628 15665915.980 10 0 59935 23400.00000 0 -18806286.471 -11130417.581 13173345.837 10 0 59935 24300.00000 0 -19904785.694 -12088859.202 10425145.568 10 0 59935 25200.00000 0 -20807389.801 -12732847.196 7474600.601 10 0 59935 26100.00000 0 -21460294.174 -13081865.461 4378947.228 10 0 59935 27000.00000 0 -21816755.170 -13166466.555 1198265.653 10 0 59935 27900.00000 0 -21839158.810 -13026750.265 -2005684.749 10 0 59935 28800.00000 0 -21500725.823 -12710448.712 -5170665.200 10 0 59935 29700.00000 0 -20786780.210 -12270699.173 -8235168.835 10 0 59935 30600.00000 0 -19695526.648 -11763599.155 -11139619.580 10 0 59935 31500.00000 0 -18238302.729 -11245647.548 -13827534.668 10 0 59935 32400.00000 0 -16439294.104 -10771180.663 -16246627.694 10 0 59935 33300.00000 0 -14334723.219 -10389912.195 -18349830.255 10 0 59935 34200.00000 0 -11971544.597 -10144681.766 -20096211.846 10 0 59935 35100.00000 0 -9405700.335 -10069507.868 -21451779.905 10 0 59935 36000.00000 0 -6700007.899 -10188028.073 -22390144.298 10 0 59935 36900.00000 0 -3921767.852 -10512392.979 -22893033.242 10 0 59935 37800.00000 0 -1140190.697 -11042661.111 -22950650.678 10 0 59935 38700.00000 0 1576250.459 -11766720.867 -22561868.139 10 0 59935 39600.00000 0 4162431.521 -12660743.245 -21734247.392 10 0 59935 40500.00000 0 6559045.084 -13690146.712 -20483893.348 10 0 59935 41400.00000 0 8714821.959 -14811033.900 -18835140.006 10 0 59935 42300.00000 0 10588414.528 -15972039.789 -16820075.445 10 0 59935 43200.00000 0 12149864.255 -17116513.593 -14477915.021 10 0 59935 44100.00000 0 13381593.002 -18184942.322 -11854234.923 10 0 59935 45000.00000 0 14278877.870 -19117513.611 -9000081.158 10 0 59935 45900.00000 0 14849791.047 -19856709.436 -5970971.549 10 0 59935 46800.00000 0 15114608.729 -20349820.899 -2825810.549 10 0 59935 47700.00000 0 15104715.570 -20551277.568 374261.399 10 0 59935 48600.00000 0 14861052.450 -20424692.754 3567060.975 10 0 59935 49500.00000 0 14432174.555 -19944538.128 6690573.756 10 0 59935 50400.00000 0 13872003.077 -19097376.942 9684160.476 10 0 59935 51300.00000 0 13237366.572 -17882603.768 12489733.976 10 0 59935 52200.00000 0 12585436.551 -16312659.584 15052883.914 10 0 59935 53100.00000 0 11971165.972 -14412713.142 17323927.426 10 0 59935 54000.00000 0 11444838.769 -12219821.796 19258865.916 10 0 59935 54900.00000 0 11049833.456 -9781606.641 20820230.096 10 0 59935 55800.00000 0 10820694.559 -7154496.817 21977797.753 10 0 59935 56700.00000 0 10781592.425 -4401615.459 22709171.356 10 0 59935 57600.00000 0 10945235.619 -1590394.280 23000205.254 10 0 59935 58500.00000 0 11312281.128 1209985.204 22845274.982 10 0 59935 59400.00000 0 11871266.921 3931218.909 22247384.018 10 0 59935 60300.00000 0 12599069.776 6508468.387 21218106.171 10 0 59935 61200.00000 0 13461869.473 8882803.928 19777364.600 10 0 59935 62100.00000 0 14416579.521 11003402.626 17953051.354 10 0 59935 63000.00000 0 15412685.151 12829411.350 15780494.048 10 0 59935 63900.00000 0 16394412.191 14331398.117 13301779.187 10 0 59935 64800.00000 0 17303136.504 15492332.325 10564944.290 10 0 59935 65700.00000 0 18079933.251 16308053.590 7623053.536 10 0 59935 66600.00000 0 18668159.033 16787210.031 4533174.158 10 0 59935 67500.00000 0 19015958.153 16950669.002 1355272.905 10 0 59935 68400.00000 0 19078587.041 16830425.306 -1848946.339 10 0 59935 69300.00000 0 18820458.106 16468053.082 -5017241.097 10 0 59935 70200.00000 0 18216815.862 15912766.912 -8088041.523 10 0 59935 71100.00000 0 17254973.390 15219174.244 -11001650.391 10 0 59935 72000.00000 0 15935055.631 14444814.447 -13701407.872 10 0 59935 72900.00000 0 14270216.773 13647588.853 -16134797.992 10 0 59935 73800.00000 0 12286321.055 12883190.851 -18254474.731 10 0 59935 74700.00000 0 10021099.049 12202645.071 -20019187.344 10 0 59935 75600.00000 0 7522813.507 11650060.004 -21394586.684 10 0 59935 76500.00000 0 4848489.438 11260689.383 -22353896.668 10 0 59935 77400.00000 0 2061781.521 11059384.416 -22878437.764 10 0 59935 78300.00000 0 -769432.994 11059502.489 -22957992.313 10 0 59935 79200.00000 0 -3575636.229 11262318.519 -22591004.632 10 0 59935 80100.00000 0 -6288319.408 11656963.952 -21784611.974 10 0 59935 81000.00000 0 -8842590.557 12220896.049 -20554505.730 10 0 59935 81900.00000 0 -11179632.136 12920877.707 -18924625.459 10 0 59935 82800.00000 0 -13248906.635 13714426.444 -16926691.617 10 0 59935 83700.00000 0 -15010018.882 14551671.264 -14599585.994 10 0 59935 84600.00000 0 -16434158.073 15377538.842 -11988591.852 10 0 59935 85500.00000 0 -17505060.134 16134176.342 -9144508.700 10 0 59936 0.00000 0 -18219451.242 16763508.089 -6122659.441 10 0 59936 900.00000 0 -18586955.532 17209817.881 -2981807.899 10 0 59936 1800.00000 0 -18629471.399 17422246.504 216987.462 10 0 59936 2700.00000 0 -18380045.466 17357099.558 3411566.216 10 0 59936 3600.00000 0 -17881292.109 16979866.771 6539877.158 10 0 59936 4500.00000 0 -17183426.991 16266867.613 9541185.446 10 0 59936 5400.00000 0 -16341998.681 15206453.433 12357251.608 10 0 59936 6300.00000 0 -15415414.897 13799715.283 14933459.403 10 0 59936 7200.00000 0 -14462368.247 12060667.454 17219870.687 10 0 59936 8100.00000 0 -13539270.113 10015898.783 19172187.297 10 0 59936 9000.00000 0 -12697800.529 7703705.873 20752602.017 10 0 59936 9900.00000 0 -11982676.676 5172744.035 21930522.949 10 0 59936 10800.00000 0 -11429733.037 2480251.366 22683158.266 10 0 59936 11700.00000 0 -11064393.069 -310081.029 22995950.977 10 0 59936 12600.00000 0 -10900595.732 -3130505.281 22862856.068 10 0 59936 13500.00000 0 -10940221.249 -5911781.281 22286455.236 10 0 59936 14400.00000 0 -11173039.743 -8585804.569 21277907.251 10 0 59936 15300.00000 0 -11577184.759 -11088189.882 19856734.832 10 0 59936 16200.00000 0 -12120131.885 -13360704.588 18050451.765 10 0 59936 17100.00000 0 -12760141.774 -15353452.207 15894036.784 10 0 59936 18000.00000 0 -13448107.424 -17026716.202 13429263.583 10 0 59936 18900.00000 0 -14129728.629 -18352388.146 10703898.991 10 0 59936 19800.00000 0 -14747922.562 -19314921.322 7770783.911 10 0 59936 20700.00000 0 -15245369.304 -19911770.243 4686814.142 10 0 59936 21600.00000 0 -15567085.029 -20153298.029 1511840.289 10 0 59936 22500.00000 0 -15662914.059 -20062155.662 -1692492.217 10 0 59936 23400.00000 0 -15489834.010 -19672159.321 -4863940.390 10 0 59936 24300.00000 0 -15013975.812 -19026713.229 -7940874.799 10 0 59936 25200.00000 0 -14212272.144 -18176844.602 -10863480.588 10 0 59936 26100.00000 0 -13073663.366 -17178933.828 -13574924.469 10 0 59936 27000.00000 0 -11599808.585 -16092235.924 -16022464.468 10 0 59936 27900.00000 0 -9805270.295 -14976298.170 -18158480.379 10 0 59936 28800.00000 0 -7717163.290 -13888383.215 -19941404.386 10 0 59936 29700.00000 0 -5374281.102 -12881006.623 -21336533.542 10 0 59936 30600.00000 0 -2825735.121 -11999692.948 -22316708.123 10 0 59936 31500.00000 0 -129162.233 -11281045.028 -22862842.589 10 0 59936 32400.00000 0 2651425.276 -10751207.904 -22964298.845 10 0 59936 33300.00000 0 5448058.694 -10424792.022 -22619094.569 10 0 59936 34200.00000 0 8191400.588 -10304300.872 -21833942.536 10 0 59936 35100.00000 0 10813394.026 -10380086.996 -20624120.157 10 0 59936 36000.00000 0 13249863.445 -10630837.898 -19013171.628 10 0 59936 36900.00000 0 15442959.178 -11024570.994 -17032448.419 10 0 59936 37800.00000 0 17343344.223 -11520095.160 -14720496.962 10 0 59936 38700.00000 0 18912032.521 -12068876.703 -12122305.379 10 0 59936 39600.00000 0 20121802.549 -12617230.351 -9288424.067 10 0 59936 40500.00000 0 20958127.915 -13108742.038 -6273977.467 10 0 59936 41400.00000 0 21419587.019 -13486820.379 -3137586.598 10 0 59936 42300.00000 0 21517735.698 -13697268.273 59776.066 10 0 59936 43200.00000 0 21276449.605 -13690765.208 3255976.541 10 0 59936 44100.00000 0 20730765.325 -13425154.752 6388930.339 10 0 59936 45000.00000 0 19925270.370 -12867440.057 9397810.372 10 0 59936 45900.00000 0 18912111.097 -11995402.724 12224227.914 10 0 59936 46800.00000 0 17748703.389 -10798776.411 14813363.551 10 0 59936 47700.00000 0 16495243.197 -9279925.472 17115026.190 10 0 59936 48600.00000 0 15212121.972 -7453999.769 19084620.054 10 0 59936 49500.00000 0 13957355.594 -5348558.668 20684001.574 10 0 59936 50400.00000 0 12784134.338 -3002679.458 21882210.368 10 0 59936 51300.00000 0 11738596.035 -465586.600 22656061.181 10 0 59936 52200.00000 0 10857914.792 2205142.046 22990586.226 10 0 59936 53100.00000 0 10168784.432 4945718.471 22879320.174 10 0 59936 54000.00000 0 9686359.158 7688549.543 22324422.881 10 0 59936 54900.00000 0 9413694.949 10364805.372 21336637.733 10 0 59936 55800.00000 0 9341714.500 12907045.778 19935086.390 10 0 59936 56700.00000 0 9449696.747 15251797.239 18146903.488 10 0 59936 57600.00000 0 9706270.356 17341974.540 16006717.737 10 0 59936 58500.00000 0 10070869.553 19129047.369 13555988.611 10 0 59936 59400.00000 0 10495591.319 20574862.526 10842210.578 10 0 59936 60300.00000 0 10927376.086 21653046.284 7917999.328 10 0 59936 61200.00000 0 11310420.256 22349928.594 4840077.023 10 0 59936 62100.00000 0 11588718.841 22664950.639 1668175.685 10 0 59936 63000.00000 0 11708630.689 22610538.659 -1536120.343 10 0 59936 63900.00000 0 11621357.494 22211449.270 -4710570.324 10 0 59936 64800.00000 0 11285231.036 21503613.785 -7793488.037 10 0 59936 65700.00000 0 10667710.972 20532530.132 -10724943.774 10 0 59936 66600.00000 0 9747007.499 19351270.170 -13447933.451 10 0 59936 67500.00000 0 8513258.920 18018186.453 -15909491.621 10 0 59936 68400.00000 0 6969212.861 16594415.238 -18061726.237 10 0 59936 69300.00000 0 5130380.821 15141281.148 -19862754.569 10 0 59936 70200.00000 0 3024657.965 13717712.929 -21277521.822 10 0 59936 71100.00000 0 691422.499 12377779.208 -22278486.372 10 0 59936 72000.00000 0 -1819848.955 11168447.981 -22846158.172 10 0 59936 72900.00000 0 -4451393.347 10127663.962 -22969479.911 10 0 59936 73800.00000 0 -7139325.935 9282824.397 -22646043.507 10 0 59936 74700.00000 0 -9816068.224 8649717.103 -21882137.721 10 0 59936 75600.00000 0 -12412938.568 8231964.906 -20692625.968 10 0 59936 76500.00000 0 -14862797.981 8020999.248 -19100656.564 10 0 59936 77400.00000 0 -17102641.171 7996563.412 -17137211.009 10 0 59936 78300.00000 0 -19076025.116 8127723.383 -14840498.961 10 0 59936 79200.00000 0 -20735234.120 8374342.897 -12255211.641 10 0 59936 80100.00000 0 -22043091.257 8688959.563 -9431648.301 10 0 59936 81000.00000 0 -22974340.930 9018981.867 -6424732.989 10 0 59936 81900.00000 0 -23516545.350 9309113.302 -3292941.025 10 0 59936 82800.00000 0 -23670458.120 9503900.197 -97156.725 10 0 59936 83700.00000 0 -23449860.331 9550294.604 3100514.875 10 0 59936 84600.00000 0 -22880867.170 9400123.100 6237958.576 10 0 59936 85500.00000 0 -22000735.390 9012356.436 9254257.668 99